This demonstration page uses our WeatherBlox Daily Observations layout. Learn more.

41.55636, -103.73856

Hourly Observations for November 19, 2015

Temp ( °F °C ) Dew Point ( °F °C ) Humidity (%) Winds ( mph kmh ) Pressure ( in mb ) Visibility ( mi km ) Precip ( " mm )
12:53 am 00:53 Clear 19 -7.2 14 -10 81 81 NNW 7 11 30.13 1020 10 16.0934 0 0
1:53 am 01:53 Clear 18 -7.8 13 -10.6 81 81 NW 6 9 30.15 1021 10 16.0934 0 0
2:53 am 02:53 Clear 18 -7.8 12 -11.1 77 77 NNW 7 11 30.16 1021 10 16.0934 0 0
3:53 am 03:53 Clear 17 -8.3 11 -11.7 77 77 Calm 30.17 1022 10 16.0934 0 0
4:53 am 04:53 Clear 16 -8.9 10 -12.2 77 77 Calm 30.2 1023 10 16.0934 0 0
5:53 am 05:53 Clear 14 -10 9 -12.8 80 80 NE 3 6 30.22 1023 10 16.0934 0 0
6:53 am 06:53 Sunny 16 -8.9 11 -11.7 80 80 NNE 7 11 30.23 1024 10 16.0934 0 0
7:53 am 07:53 Sunny 20 -6.7 14 -10 78 78 Calm 30.24 1024 10 16.0934 0 0
8:53 am 08:53 Sunny 26 -3.3 18 -7.8 71 71 E 3 6 30.23 1024 10 16.0934 0 0
9:53 am 09:53 Sunny 30 -1.1 18 -7.8 61 61 SSE 3 6 30.23 1024 10 16.0934 0 0
10:53 am 10:53 Sunny 35 1.7 16 -8.9 46 46 SE 6 9 30.2 1023 10 16.0934 0 0
11:53 am 11:53 Sunny 38 3.3 15 -9.4 39 39 SE 10 17 30.16 1021 10 16.0934 0 0
12:53 pm 12:53 Sunny 41 5 14 -10 33 33 VRB 5 7 30.12 1020 10 16.0934 0 0
1:53 pm 13:53 Cloudy 40 4.4 17 -8.3 40 40 SSE 7 11 30.11 1020 10 16.0934 0 0
2:53 pm 14:53 Cloudy 40 4.4 19 -7.2 43 43 SE 8 13 30.1 1019 10 16.0934 0 0
3:53 pm 15:53 Mostly Cloudy 39 3.9 20 -6.7 46 46 ESE 7 11 30.09 1019 10 16.0934 0 0
4:53 pm 16:53 Mostly Cloudy 31 -0.6 19 -7.2 61 61 ENE 7 11 30.11 1020 10 16.0934 0 0
5:53 pm 17:53 Cloudy 33 0.6 19 -7.2 56 56 ENE 5 7 30.11 1020 10 16.0934 0 0
6:53 pm 18:53 Cloudy 35 1.7 19 -7.2 52 52 E 7 11 30.09 1019 10 16.0934 0 0
7:53 pm 19:53 Cloudy 35 1.7 19 -7.2 52 52 ESE 9 15 30.06 1018 10 16.0934 0 0
8:53 pm 20:53 Cloudy 34 1.1 21 -6.1 59 59 ESE 9 15 30.03 1017 10 16.0934 0 0
9:53 pm 21:53 Cloudy 35 1.7 22 -5.6 59 59 ESE 14 22 29.98 1015 10 16.0934 0 0
10:53 pm 22:53 Cloudy 34 1.1 23 -5 64 64 E 10 17 29.94 1014 10 16.0934 0 0
11:53 pm 23:53 Cloudy 33 0.6 23 -5 66 66 ESE 13 20 29.91 1013 10 16.0934 0 0

Powered by AerisWeather